#timestamp,LO_Frequency,Hit,StdDev 
1512874815.2,286046999.4,N
1512874835.9,286046996.3,N
1512874855.7,286046994.4,N
1512874875.6,286046994.2,N
1512874895.4,286046995.9,N
1512874915.2,286046999.2,N
1512874935.1,286047000.6,N
1512874936.0,286047000.6,N
1512874955.8,286047001.1,N
1512874975.7,286047000.7,N
1512874995.5,286046999.0,N
1512875015.3,286046998.5,N
1512875035.2,286047002.3,N
1512875055.0,286047000.0,N
1512875055.9,286047000.0,N
1512875075.8,286046998.4,N
1512875095.6,286047000.0,N
1512875115.4,286047001.6,N
1512875135.3,286046999.9,N
1512875155.1,286047000.2,N
1512875175.9,286047000.3,N
1512875195.7,286046999.8,N
1512875215.5,286047001.1,N
1512875235.4,286046996.5,N
1512875255.2,286046999.0,N
1512875275.0,286046999.8,N
1512875276.0,286046999.8,N
1512875295.8,286047002.8,N
1512875315.6,286047000.3,N
1512875335.5,286047000.8,N
1512875355.3,286046998.3,N
1512875375.1,286047000.3,N
1512875395.9,286047001.6,N
1512875415.7,286046996.6,N
1512875435.6,286046997.1,N
1512875455.4,286046999.2,N
1512875475.2,286046999.4,N
1512875495.1,286046998.8,N
1512875496.0,286046998.8,N
1512875515.8,286046998.3,N
1512875535.7,286046998.8,N
1512875555.5,286046998.3,N
1512875575.3,286046996.5,N
1512875595.2,286046999.2,N
1512875615.0,286046996.6,N
1512875615.9,286046996.6,N
1512875635.7,286046997.0,N
1512875655.6,286046997.3,N
1512875675.4,286046999.4,N
1512875695.3,286046998.4,N
1512875715.1,286046998.1,N
1512875716.0,286046998.1,N
1512875735.8,286046998.1,N
1512875755.7,286046999.6,N
1512875775.5,286046999.9,N
1512875795.4,286047000.2,N
1512875815.2,286047001.2,N
1512875835.0,286046999.9,N
1512875835.9,286046999.9,N
1512875855.8,286047001.1,N
1512875875.6,286046998.4,N
1512875895.4,286046999.1,N
1512875915.3,286047000.1,N
1512875935.1,286047002.7,N
1512875955.9,286047000.5,N
1512875975.7,286047002.8,N
1512875995.5,286047000.6,N
1512876015.4,286046999.9,N
1512876035.2,286047002.1,N
1512876055.1,286046999.8,N
1512876056.0,286046999.8,N
1512876075.8,286046999.3,N
1512876095.6,286046998.7,N
1512876115.5,286046999.7,N
1512876135.3,286047002.3,N
1512876155.1,286046999.8,N
1512876175.9,286047002.3,N
1512876195.7,286047002.8,N
1512876215.6,286047001.1,N
1512876235.4,286047000.5,N
1512876255.2,286046999.7,N
1512876275.1,286047002.7,N
1512876276.0,286047002.7,N
1512876295.8,286047002.6,N
1512876315.7,286046999.9,N
1512876335.5,286046999.9,N
1512876355.3,286047002.8,N
1512876375.2,286047004.1,N
1512876395.0,286047002.9,N
1512876395.9,286047002.9,N
1512876415.8,286047003.4,N
1512876435.6,286047005.0,Y
1512876455.4,286047006.0,P
1512876475.3,286047002.6,N
1512876495.1,286047000.0,N
1512876515.8,286047000.8,N
1512876535.7,286047002.3,N
1512876555.5,286047002.2,N
1512876575.4,286047001.9,N
1512876595.2,286047001.7,N
1512876615.0,286047004.2,N
1512876615.9,286047004.2,N
1512876635.8,286046999.8,N
1512876655.6,286046999.7,N
1512876675.5,286047000.8,N
1512876695.3,286046998.2,N
1512876715.1,286046996.5,N
1512876735.9,286046996.6,N
1512876755.7,286046998.6,N
1512876775.5,286046999.4,N
1512876795.4,286046998.5,N
1512876815.2,286047001.7,N
1512876835.1,286047002.0,N
1512876836.0,286047002.0,N
1512876855.8,286046999.8,N
1512876875.6,286047002.0,N
1512876895.5,286047004.4,N
1512876915.3,286047002.9,N
1512876935.1,286046998.6,N
1512876955.9,286047000.4,N
1512876975.7,286047002.4,N
1512876995.6,286047001.7,N
1512877015.4,286046998.2,N
1512877035.2,286046999.4,N
1512877055.1,286046999.9,N
1512877056.0,286046999.9,N
1512877075.8,286047002.8,N
1512877095.7,286047004.4,N
1512877115.5,286047001.9,N
1512877135.3,286047000.7,N
1512877155.2,286047000.2,N
1512877175.0,286047003.7,N
1512877175.9,286047003.7,N
1512877195.8,286047004.4,N
1512877215.6,286047005.1,N
1512877235.4,286047004.7,N
1512877255.3,286047005.5,N
1512877275.1,286047005.8,N
1512877295.8,286047005.0,N
1512877315.7,286047006.8,Y
1512877335.5,286047003.4,P
1512877355.4,286047003.3,P
1512877375.2,286047001.6,N
1512877395.0,286047000.5,N
1512877395.9,286047000.5,N
1512877415.8,286046999.9,N
1512877435.6,286047002.4,N
1512877455.5,286047002.1,N
1512877475.3,286047004.1,Y
1512877495.1,286047002.1,P
1512877515.9,286046998.8,P
1512877535.7,286046996.7,N
1512877555.6,286046995.0,N
1512877575.4,286046997.0,N
1512877595.2,286046998.2,N
1512877615.1,286046999.2,N
1512877616.0,286046999.2,N
1512877635.8,286046999.4,N
1512877655.6,286046996.9,N
1512877675.5,286046998.8,N
1512877695.3,286047000.4,N
1512877715.2,286047000.7,N
1512877735.9,286047001.3,N
1512877755.7,286047006.0,Y
1512877775.6,286047005.7,P
1512877795.4,286047003.1,N
1512877815.3,286047004.2,N
1512877835.1,286047000.1,N
1512877836.0,286047000.1,N
1512877855.8,286047000.1,N
1512877875.7,286046998.7,N
1512877895.5,286046999.2,N
1512877915.3,286046999.1,N
1512877935.2,286046997.8,N
1512877955.0,286046997.7,N
1512877955.9,286046997.7,N
1512877975.8,286046999.0,N
1512877995.6,286047000.8,N
1512878015.4,286047000.6,N
1512878035.3,286047000.2,N
1512878055.1,286047000.4,N
1512878075.9,286047000.9,N
1512878095.7,286046998.1,N
1512878115.5,286047000.6,N
1512878135.4,286046998.6,N
1512878155.2,286046998.8,N
1512878175.1,286046999.0,N
1512878176.0,286046999.0,N
1512878195.8,286046999.0,N
1512878215.6,286046998.2,N
1512878235.5,286046999.8,N
1512878255.3,286047000.0,N
1512878275.2,286046998.2,N
1512878295.9,286046999.9,N
1512878315.7,286046999.6,N
1512878335.6,286046997.4,N
1512878355.4,286046995.7,Y
1512878375.2,286046996.9,P
1512878395.1,286046999.0,N
1512878396.0,286046999.0,N
